| time (UTC) | temp C | wind direction | speed KPH | gust KPH | rain 1hr cm | rain 24hr cm | rain mn cm | humidity % | barometer mb |
| 20260505214832 | 16 | 203 | 6.4 | 16.1 | 0.00 | 0.00 | 0.00 | 40 | 1011.6 |
| 20260505214342 | 16 | 231 | 1.6 | 20.9 | 0.00 | 0.00 | 0.00 | 41 | 1011.6 |
| 20260505213827 | 16 | 200 | 8.0 | 20.9 | 0.00 | 0.00 | 0.00 | 41 | 1011.9 |
| 20260505213333 | 15 | 155 | 4.8 | 20.9 | 0.00 | 0.00 | 0.00 | 42 | 1011.9 |
| 20260505212838 | 15 | 216 | 11.3 | 20.9 | 0.00 | 0.00 | 0.00 | 41 | 1012.2 |
| 20260505212343 | 16 | 253 | 6.4 | 17.7 | 0.00 | 0.00 | 0.00 | 40 | 1012.2 |
| 20260505211828 | 15 | 292 | 8.0 | 20.9 | 0.00 | 0.00 | 0.00 | 43 | 1012.2 |
| 20260505211336 | 15 | 237 | 4.8 | 20.9 | 0.00 | 0.00 | 0.00 | 43 | 1012.2 |
| 20260505210842 | 15 | 212 | 8.0 | 20.9 | 0.00 | 0.00 | 0.00 | 43 | 1012.4 |
| 20260505210326 | 15 | 257 | 8.0 | 20.9 | 0.00 | 0.00 | 0.00 | 44 | 1012.4 |
| 20260505205832 | 15 | 207 | 6.4 | 24.1 | 0.00 | 0.00 | 0.00 | 44 | 1012.4 |
| 20260505205324 | 14 | 211 | 11.3 | 24.1 | 0.00 | 0.00 | 0.00 | 45 | 1012.5 |
| 20260505204833 | 14 | 270 | 6.4 | 14.5 | 0.00 | 0.00 | 0.00 | 47 | 1012.8 |
| 20260505204338 | 14 | 181 | 9.7 | 19.3 | 0.00 | 0.00 | 0.00 | 45 | 1012.8 |
| 20260505203826 | 15 | 231 | 8.0 | 19.3 | 0.00 | 0.00 | 0.00 | 43 | 1013.0 |
| 20260505203331 | 15 | 221 | 1.6 | 17.7 | 0.00 | 0.00 | 0.00 | 44 | 1013.1 |
| 20260505202837 | 15 | 284 | 6.4 | 22.5 | 0.00 | 0.00 | 0.00 | 45 | 1013.1 |
| 20260505202323 | 15 | 209 | 6.4 | 22.5 | 0.00 | 0.00 | 0.00 | 45 | 1013.3 |
| 20260505201830 | 14 | 199 | 6.4 | 17.7 | 0.00 | 0.00 | 0.00 | 46 | 1013.3 |
| 20260505201336 | 14 | 211 | 6.4 | 20.9 | 0.00 | 0.00 | 0.00 | 48 | 1013.3 |
| 20260505200825 | 13 | 280 | 6.4 | 19.3 | 0.00 | 0.00 | 0.00 | 49 | 1013.2 |
| 20260505200330 | 13 | 182 | 6.4 | 19.3 | 0.00 | 0.00 | 0.00 | 50 | 1013.2 |
| 20260505195835 | 12 | 294 | 8.0 | 19.3 | 0.00 | 0.00 | 0.00 | 51 | 1013.2 |
| 20260505195341 | 12 | 249 | 8.0 | 19.3 | 0.00 | 0.00 | 0.00 | 52 | 1013.2 |
| 20260505194826 | 12 | 247 | 8.0 | 17.7 | 0.00 | 0.00 | 0.00 | 52 | 1013.1 |
| 20260505194334 | 12 | 202 | 8.0 | 24.1 | 0.00 | 0.00 | 0.00 | 55 | 1013.2 |
| 20260505193840 | 13 | 249 | 6.4 | 24.1 | 0.00 | 0.00 | 0.00 | 50 | 1013.4 |
| 20260505193328 | 13 | 246 | 3.2 | 17.7 | 0.00 | 0.00 | 0.00 | 48 | 1013.1 |
| 20260505192836 | 13 | 223 | 6.4 | 19.3 | 0.00 | 0.00 | 0.00 | 48 | 1013.1 |
| 20260505192341 | 13 | 248 | 4.8 | 22.5 | 0.00 | 0.00 | 0.00 | 47 | 1013.2 |
| 20260505191831 | 13 | 232 | 6.4 | 20.9 | 0.00 | 0.00 | 0.00 | 48 | 1013.2 |
| 20260505191336 | 13 | 208 | 3.2 | 19.3 | 0.00 | 0.00 | 0.00 | 48 | 1013.2 |
| 20260505190841 | 13 | 242 | 3.2 | 19.3 | 0.00 | 0.00 | 0.00 | 51 | 1013.2 |
| 20260505190326 | 12 | 257 | 3.2 | 11.3 | 0.00 | 0.00 | 0.00 | 53 | 1013.2 |
| 20260505185831 | 12 | 250 | 3.2 | 17.7 | 0.00 | 0.00 | 0.00 | 55 | 1013.2 |
| 20260505185336 | 13 | 199 | 8.0 | 19.3 | 0.00 | 0.00 | 0.00 | 51 | 1013.3 |
| 20260505184821 | 13 | 202 | 9.7 | 19.3 | 0.00 | 0.00 | 0.00 | 43 | 1013.2 |
| 20260505184330 | 13 | 190 | 4.8 | 11.3 | 0.00 | 0.00 | 0.00 | 43 | 1013.0 |
| 20260505183835 | 13 | 140 | 4.8 | 16.1 | 0.00 | 0.00 | 0.00 | 40 | 1013.0 |
| 20260505183340 | 13 | 158 | 6.4 | 16.1 | 0.00 | 0.00 | 0.00 | 40 | 1013.3 |
| 20260505182828 | 13 | 243 | 4.8 | 11.3 | 0.00 | 0.00 | 0.00 | 40 | 1013.1 |
| 20260505182333 | 13 | 189 | 4.8 | 14.5 | 0.00 | 0.00 | 0.00 | 39 | 1013.2 |
| 20260505181838 | 13 | 192 | 4.8 | 14.5 | 0.00 | 0.00 | 0.00 | 38 | 1013.1 |
| 20260505181326 | 13 | 186 | 8.0 | 12.9 | 0.00 | 0.00 | 0.00 | 39 | 1013.0 |
| 20260505180832 | 13 | 168 | 1.6 | 9.7 | 0.00 | 0.00 | 0.00 | 40 | 1013.1 |
| 20260505180337 | 13 | 178 | 1.6 | 12.9 | 0.00 | 0.00 | 0.00 | 40 | 1013.1 |
| 20260505175843 | 13 | 95 | 3.2 | 12.9 | 0.00 | 0.00 | 0.00 | 40 | 1013.2 |
| 20260505175328 | 12 | 163 | 3.2 | 11.3 | 0.00 | 0.00 | 0.00 | 40 | 1013.2 |
| 20260505174833 | 12 | 134 | 4.8 | 11.3 | 0.00 | 0.00 | 0.00 | 40 | 1013.4 |
| 20260505174338 | 12 | 172 | 3.2 | 8.0 | 0.00 | 0.00 | 0.00 | 40 | 1013.6 |
| 20260505173827 | 12 | 171 | 1.6 | 9.7 | 0.00 | 0.00 | 0.00 | 40 | 1013.6 |
| 20260505173332 | 13 | 198 | 4.8 | 9.7 | 0.00 | 0.00 | 0.00 | 39 | 1013.7 |
| 20260505172839 | 12 | 82 | 1.6 | 11.3 | 0.00 | 0.00 | 0.00 | 41 | 1013.6 |
| 20260505172327 | 12 | 81 | 3.2 | 11.3 | 0.00 | 0.00 | 0.00 | 40 | 1013.5 |
| 20260505171832 | 12 | 118 | 3.2 | 11.3 | 0.00 | 0.00 | 0.00 | 40 | 1013.6 |
| 20260505171337 | 12 | 150 | 4.8 | 16.1 | 0.00 | 0.00 | 0.00 | 41 | 1013.7 |
| 20260505170842 | 12 | 108 | 6.4 | 16.1 | 0.00 | 0.00 | 0.00 | 40 | 1013.7 |
| 20260505170327 | 12 | 92 | 4.8 | 11.3 | 0.00 | 0.00 | 0.00 | 41 | 1013.7 |
| 20260505165832 | 12 | 169 | 1.6 | 11.3 | 0.00 | 0.00 | 0.00 | 42 | 1013.8 |
| 20260505165337 | 12 | 149 | 3.2 | 12.9 | 0.00 | 0.00 | 0.00 | 41 | 1013.9 |
| 20260505164826 | 12 | 182 | 1.6 | 12.9 | 0.00 | 0.00 | 0.00 | 43 | 1014.0 |
| 20260505164334 | 12 | 199 | 6.4 | 12.9 | 0.00 | 0.00 | 0.00 | 42 | 1014.1 |
| 20260505163839 | 11 | 236 | 3.2 | 16.1 | 0.00 | 0.00 | 0.00 | 44 | 1014.1 |
| 20260505163324 | 11 | 223 | 4.8 | 16.1 | 0.00 | 0.00 | 0.00 | 43 | 1014.2 |
| 20260505162829 | 11 | 244 | 4.8 | 12.9 | 0.00 | 0.00 | 0.00 | 44 | 1014.2 |
| 20260505162338 | 11 | 232 | 4.8 | 12.9 | 0.00 | 0.00 | 0.00 | 44 | 1014.1 |
| 20260505161843 | 11 | 198 | 1.6 | 11.3 | 0.00 | 0.00 | 0.00 | 45 | 1014.2 |
| 20260505161329 | 11 | 214 | 1.6 | 12.9 | 0.00 | 0.00 | 0.00 | 46 | 1014.2 |
| 20260505160833 | 11 | 208 | 4.8 | 11.3 | 0.00 | 0.00 | 0.00 | 45 | 1014.4 |
| 20260505160339 | 11 | 248 | 3.2 | 11.3 | 0.00 | 0.00 | 0.00 | 45 | 1014.3 |
| 20260505153341 | 11 | 252 | 3.2 | 17.7 | 0.00 | 0.00 | 0.00 | 43 | 1014.4 |
| 20260505152826 | 11 | 202 | 6.4 | 19.3 | 0.00 | 0.00 | 0.00 | 46 | 1014.3 |
| 20260505152331 | 11 | 258 | 8.0 | 19.3 | 0.00 | 0.00 | 0.00 | 46 | 1014.3 |
| 20260505151836 | 11 | 246 | 6.4 | 16.1 | 0.00 | 0.00 | 0.00 | 46 | 1014.3 |
| 20260505151341 | 11 | 248 | 3.2 | 16.1 | 0.00 | 0.00 | 0.00 | 45 | 1014.3 |
| 20260505150830 | 11 | 237 | 3.2 | 12.9 | 0.00 | 0.00 | 0.00 | 44 | 1014.3 |
| 20260505150335 | 11 | 248 | 4.8 | 12.9 | 0.00 | 0.00 | 0.00 | 45 | 1014.3 |
| 20260505140331 | 12 | 268 | 4.8 | 12.9 | 0.00 | 0.00 | 0.00 | 42 | 1014.5 |
| 20260505124828 | 10 | 254 | 3.2 | 9.7 | 0.00 | 0.00 | 0.00 | 47 | 1014.5 |
| 20260505124334 | 9 | 256 | 1.6 | 9.7 | 0.00 | 0.00 | 0.00 | 46 | 1014.6 |
| 20260505123825 | 8 | 262 | 1.6 | 8.0 | 0.00 | 0.00 | 0.00 | 46 | 1014.6 |
| 20260505123331 | 8 | 271 | 1.6 | 3.2 | 0.00 | 0.00 | 0.00 | 47 | 1014.5 |
| 20260505122838 | 8 | 286 | 0.0 | 1.6 | 0.00 | 0.00 | 0.00 | 47 | 1014.5 |
| 20260505122323 | 8 | 286 | 0.0 | 0.0 | 0.00 | 0.00 | 0.00 | 46 | 1014.5 |
| 20260505121832 | 8 | 286 | 0.0 | 0.0 | 0.00 | 0.00 | 0.00 | 45 | 1014.3 |
| 20260505121338 | 9 | 286 | 0.0 | 0.0 | 0.00 | 0.00 | 0.00 | 44 | 1014.2 |
| 20260505120824 | 9 | 286 | 0.0 | 0.0 | 0.00 | 0.00 | 0.00 | 43 | 1014.2 |
| 20260505120330 | 9 | 286 | 0.0 | 0.0 | 0.00 | 0.00 | 0.00 | 43 | 1014.1 |
| 20260505115836 | 9 | 286 | 0.0 | 6.4 | 0.00 | 0.00 | 0.00 | 43 | 1014.0 |
| 20260505115326 | 9 | 286 | 1.6 | 6.4 | 0.00 | 0.00 | 0.00 | 42 | 1013.9 |
| 20260505114831 | 9 | 259 | 0.0 | 3.2 | 0.00 | 0.00 | 0.00 | 42 | 1014.0 |
| 20260505114338 | 10 | 259 | 0.0 | 6.4 | 0.00 | 0.00 | 0.00 | 42 | 1014.1 |
| 20260505113824 | 9 | 259 | 1.6 | 8.0 | 0.00 | 0.00 | 0.00 | 42 | 1014.2 |
| 20260505113331 | 9 | 248 | 1.6 | 8.0 | 0.00 | 0.00 | 0.00 | 42 | 1014.3 |
| 20260505112837 | 9 | 254 | 0.0 | 3.2 | 0.00 | 0.00 | 0.00 | 42 | 1014.3 |
| 20260505112322 | 10 | 254 | 0.0 | 0.0 | 0.00 | 0.00 | 0.00 | 42 | 1014.3 |
| 20260505111832 | 10 | 254 | 0.0 | 0.0 | 0.00 | 0.00 | 0.00 | 42 | 1014.1 |
| 20260505111337 | 10 | 254 | 0.0 | 0.0 | 0.00 | 0.00 | 0.00 | 41 | 1014.2 |
| 20260505110823 | 10 | 254 | 0.0 | 0.0 | 0.00 | 0.00 | 0.00 | 41 | 1014.2 |
| 20260505110336 | 10 | 254 | 0.0 | 0.0 | 0.00 | 0.00 | 0.00 | 41 | 1014.1 |
| 20260505101836 | 11 | 235 | 1.6 | 11.3 | 0.00 | 0.00 | 0.00 | 36 | 1013.8 |
| 20260505101326 | 11 | 243 | 0.0 | 11.3 | 0.00 | 0.00 | 0.00 | 36 | 1013.8 |
| 20260505100831 | 11 | 235 | 0.0 | 14.5 | 0.00 | 0.00 | 0.00 | 36 | 1013.8 |
| 20260505100337 | 11 | 250 | 1.6 | 14.5 | 0.00 | 0.00 | 0.00 | 35 | 1013.7 |
| 20260505095842 | 11 | 253 | 3.2 | 12.9 | 0.00 | 0.00 | 0.00 | 35 | 1013.8 |
| 20260505095328 | 11 | 226 | 3.2 | 9.7 | 0.00 | 0.00 | 0.00 | 36 | 1013.8 |
| 20260505094832 | 11 | 255 | 3.2 | 11.3 | 0.00 | 0.00 | 0.00 | 35 | 1013.9 |
| 20260505094338 | 11 | 258 | 1.6 | 11.3 | 0.00 | 0.00 | 0.00 | 36 | 1013.8 |
| 20260505093843 | 11 | 298 | 1.6 | 8.0 | 0.00 | 0.00 | 0.00 | 36 | 1013.8 |
| 20260505093329 | 11 | 269 | 1.6 | 6.4 | 0.00 | 0.00 | 0.00 | 38 | 1013.8 |
| 20260505092834 | 11 | 279 | 0.0 | 4.8 | 0.00 | 0.00 | 0.00 | 38 | 1013.8 |
| 20260505092327 | 11 | 279 | 1.6 | 4.8 | 0.00 | 0.00 | 0.00 | 37 | 1013.8 |
| 20260505091834 | 11 | 308 | 1.6 | 9.7 | 0.00 | 0.00 | 0.00 | 37 | 1013.9 |
| 20260505091340 | 11 | 312 | 0.0 | 9.7 | 0.00 | 0.00 | 0.00 | 36 | 1013.9 |
| 20260505090827 | 11 | 308 | 3.2 | 9.7 | 0.00 | 0.00 | 0.00 | 36 | 1014.1 |
| 20260505090337 | 11 | 317 | 1.6 | 9.7 | 0.00 | 0.00 | 0.00 | 35 | 1014.1 |
| 20260505085822 | 11 | 283 | 0.0 | 6.4 | 0.00 | 0.00 | 0.00 | 35 | 1014.0 |
| 20260505085331 | 11 | 283 | 0.0 | 4.8 | 0.00 | 0.00 | 0.00 | 35 | 1014.1 |
| 20260505084836 | 11 | 263 | 0.0 | 3.2 | 0.00 | 0.00 | 0.00 | 36 | 1014.1 |
| 20260505084325 | 11 | 263 | 0.0 | 1.6 | 0.00 | 0.00 | 0.00 | 36 | 1014.2 |
| 20260505083835 | 11 | 263 | 0.0 | 1.6 | 0.00 | 0.00 | 0.00 | 36 | 1014.3 |
| 20260505083342 | 11 | 263 | 0.0 | 0.0 | 0.00 | 0.00 | 0.00 | 36 | 1014.4 |
| 20260505082828 | 11 | 263 | 0.0 | 3.2 | 0.00 | 0.00 | 0.00 | 35 | 1014.5 |
| 20260505082333 | 12 | 263 | 0.0 | 3.2 | 0.00 | 0.00 | 0.00 | 35 | 1014.6 |
| 20260505081838 | 12 | 263 | 0.0 | 1.6 | 0.00 | 0.00 | 0.00 | 34 | 1014.9 |
| 20260505081323 | 12 | 263 | 0.0 | 4.8 | 0.00 | 0.00 | 0.00 | 34 | 1014.9 |
| 20260505080829 | 12 | 263 | 0.0 | 4.8 | 0.00 | 0.00 | 0.00 | 34 | 1014.9 |
| 20260505080334 | 12 | 268 | 0.0 | 1.6 | 0.00 | 0.00 | 0.00 | 34 | 1014.8 |
| 20260505075824 | 12 | 268 | 0.0 | 0.0 | 0.00 | 0.00 | 0.00 | 34 | 1014.7 |
| 20260505075330 | 12 | 268 | 0.0 | 0.0 | 0.00 | 0.00 | 0.00 | 33 | 1014.7 |
| 20260505074840 | 12 | 268 | 0.0 | 0.0 | 0.00 | 0.00 | 0.00 | 33 | 1014.8 |
| 20260505074325 | 13 | 268 | 0.0 | 0.0 | 0.00 | 0.00 | 0.00 | 31 | 1014.8 |
| 20260505073830 | 13 | 268 | 0.0 | 3.2 | 0.00 | 0.00 | 0.00 | 31 | 1014.8 |
| 20260505073338 | 13 | 268 | 0.0 | 3.2 | 0.00 | 0.00 | 0.00 | 31 | 1014.6 |
| 20260505072843 | 13 | 268 | 0.0 | 4.8 | 0.00 | 0.00 | 0.00 | 30 | 1014.5 |
| 20260505072328 | 13 | 271 | 0.0 | 4.8 | 0.00 | 0.00 | 0.00 | 30 | 1014.3 |
| 20260505071833 | 13 | 271 | 1.6 | 6.4 | 0.00 | 0.00 | 0.00 | 30 | 1014.4 |
| 20260505071338 | 13 | 275 | 1.6 | 6.4 | 0.00 | 0.00 | 0.00 | 30 | 1014.3 |
| 20260505070843 | 13 | 313 | 1.6 | 9.7 | 0.00 | 0.00 | 0.00 | 30 | 1014.3 |
| 20260505070329 | 13 | 268 | 1.6 | 9.7 | 0.00 | 0.00 | 0.00 | 31 | 1014.5 |
| 20260505065842 | 13 | 252 | 0.0 | 0.0 | 0.00 | 0.00 | 0.00 | 32 | 1014.5 |
| 20260505065327 | 13 | 252 | 0.0 | 1.6 | 0.00 | 0.00 | 0.00 | 32 | 1014.5 |
| 20260505064832 | 13 | 252 | 0.0 | 1.6 | 0.00 | 0.00 | 0.00 | 32 | 1014.5 |
| 20260505064338 | 13 | 253 | 0.0 | 1.6 | 0.00 | 0.00 | 0.00 | 32 | 1014.5 |
| 20260505063825 | 13 | 253 | 0.0 | 3.2 | 0.00 | 0.00 | 0.00 | 32 | 1014.4 |
| 20260505063335 | 13 | 253 | 0.0 | 3.2 | 0.00 | 0.00 | 0.00 | 31 | 1014.4 |
| 20260505062840 | 14 | 253 | 0.0 | 0.0 | 0.00 | 0.00 | 0.00 | 31 | 1014.4 |
| 20260505062326 | 14 | 253 | 0.0 | 6.4 | 0.00 | 0.00 | 0.00 | 30 | 1014.4 |
| 20260505061832 | 14 | 253 | 1.6 | 6.4 | 0.00 | 0.00 | 0.00 | 30 | 1014.4 |
| 20260505061323 | 14 | 257 | 0.0 | 4.8 | 0.00 | 0.00 | 0.00 | 30 | 1014.4 |
| 20260505060828 | 14 | 257 | 0.0 | 11.3 | 0.00 | 0.00 | 0.00 | 30 | 1014.4 |
| 20260505060338 | 15 | 260 | 1.6 | 11.3 | 0.00 | 0.00 | 0.00 | 30 | 1014.5 |
| 20260505055843 | 15 | 263 | 3.2 | 9.7 | 0.00 | 0.00 | 0.00 | 30 | 1014.5 |
| 20260505055328 | 15 | 222 | 4.8 | 12.9 | 0.00 | 0.00 | 0.00 | 30 | 1014.5 |
| 20260505054833 | 15 | 245 | 3.2 | 12.9 | 0.00 | 0.00 | 0.00 | 30 | 1014.4 |
| 20260505054338 | 15 | 226 | 1.6 | 6.4 | 0.00 | 0.00 | 0.00 | 30 | 1014.2 |
| 20260505053824 | 15 | 240 | 1.6 | 8.0 | 0.00 | 0.00 | 0.00 | 30 | 1014.3 |
| 20260505053329 | 15 | 252 | 0.0 | 12.9 | 0.00 | 0.00 | 0.00 | 30 | 1014.2 |
| 20260505052835 | 15 | 259 | 3.2 | 12.9 | 0.00 | 0.00 | 0.00 | 30 | 1014.1 |
| 20260505052324 | 15 | 259 | 1.6 | 11.3 | 0.00 | 0.00 | 0.00 | 30 | 1014.3 |
| 20260505051829 | 15 | 231 | 1.6 | 11.3 | 0.00 | 0.00 | 0.00 | 31 | 1014.1 |
| 20260505051334 | 15 | 298 | 1.6 | 6.4 | 0.00 | 0.00 | 0.00 | 32 | 1014.2 |
| 20260505050840 | 15 | 299 | 0.0 | 8.0 | 0.00 | 0.00 | 0.00 | 31 | 1014.2 |
| 20260505050326 | 15 | 241 | 1.6 | 6.4 | 0.00 | 0.00 | 0.00 | 31 | 1014.3 |
| 20260505041332 | 14 | 325 | 0.0 | 0.0 | 0.00 | 0.00 | 0.00 | 30 | 1014.3 |
| 20260505040837 | 14 | 325 | 0.0 | 0.0 | 0.00 | 0.00 | 0.00 | 29 | 1014.3 |
| 20260505040342 | 15 | 325 | 0.0 | 0.0 | 0.00 | 0.00 | 0.00 | 29 | 1014.3 |
| 20260505035828 | 15 | 325 | 0.0 | 0.0 | 0.00 | 0.00 | 0.00 | 28 | 1014.3 |
| 20260505035333 | 15 | 325 | 0.0 | 0.0 | 0.00 | 0.00 | 0.00 | 28 | 1014.4 |
| 20260505034841 | 15 | 325 | 0.0 | 0.0 | 0.00 | 0.00 | 0.00 | 28 | 1014.4 |
| 20260505034330 | 15 | 325 | 0.0 | 0.0 | 0.00 | 0.00 | 0.00 | 27 | 1014.3 |
| 20260505033836 | 15 | 325 | 0.0 | 0.0 | 0.00 | 0.00 | 0.00 | 26 | 1014.2 |
| 20260505033341 | 15 | 325 | 0.0 | 0.0 | 0.00 | 0.00 | 0.00 | 26 | 1014.2 |
| 20260505032826 | 15 | 325 | 0.0 | 4.8 | 0.00 | 0.00 | 0.00 | 26 | 1014.1 |
| 20260505032332 | 15 | 325 | 1.6 | 4.8 | 0.00 | 0.00 | 0.00 | 25 | 1014.1 |
| 20260505031837 | 16 | 325 | 0.0 | 11.3 | 0.00 | 0.00 | 0.00 | 25 | 1013.9 |
| 20260505031325 | 16 | 298 | 1.6 | 4.8 | 0.00 | 0.00 | 0.00 | 25 | 1013.9 |
| 20260505030833 | 16 | 297 | 0.0 | 3.2 | 0.00 | 0.00 | 0.00 | 24 | 1013.7 |
| 20260505030339 | 16 | 297 | 0.0 | 3.2 | 0.00 | 0.00 | 0.00 | 24 | 1013.7 |
| 20260505025825 | 16 | 297 | 0.0 | 8.0 | 0.00 | 0.00 | 0.00 | 24 | 1013.6 |
| 20260505025334 | 16 | 298 | 1.6 | 8.0 | 0.00 | 0.00 | 0.00 | 24 | 1013.5 |
| 20260505024840 | 16 | 257 | 1.6 | 9.7 | 0.00 | 0.00 | 0.00 | 23 | 1013.6 |
| 20260505024325 | 16 | 263 | 1.6 | 8.0 | 0.00 | 0.00 | 0.00 | 23 | 1013.4 |
| 20260505023831 | 16 | 265 | 1.6 | 6.4 | 0.00 | 0.00 | 0.00 | 22 | 1013.3 |
| 20260505023336 | 16 | 256 | 0.0 | 9.7 | 0.00 | 0.00 | 0.00 | 22 | 1013.4 |
| 20260505022824 | 17 | 256 | 3.2 | 9.7 | 0.00 | 0.00 | 0.00 | 21 | 1013.3 |
| 20260505022332 | 17 | 252 | 3.2 | 9.7 | 0.00 | 0.00 | 0.00 | 21 | 1013.3 |
| 20260505021838 | 17 | 261 | 4.8 | 11.3 | 0.00 | 0.00 | 0.00 | 21 | 1013.2 |
| 20260505021323 | 17 | 265 | 4.8 | 12.9 | 0.00 | 0.00 | 0.00 | 20 | 1013.1 |
| 20260505020828 | 17 | 254 | 4.8 | 12.9 | 0.00 | 0.00 | 0.00 | 20 | 1013.1 |
| 20260505020338 | 17 | 263 | 4.8 | 12.9 | 0.00 | 0.00 | 0.00 | 20 | 1013.2 |
| 20260505015823 | 17 | 271 | 3.2 | 16.1 | 0.00 | 0.00 | 0.00 | 20 | 1013.3 |
| 20260505015328 | 17 | 263 | 6.4 | 17.7 | 0.00 | 0.00 | 0.00 | 19 | 1013.2 |
| 20260505014833 | 17 | 238 | 4.8 | 17.7 | 0.00 | 0.00 | 0.00 | 19 | 1013.1 |
| 20260505014337 | 17 | 248 | 6.4 | 17.7 | 0.00 | 0.00 | 0.00 | 19 | 1012.9 |
| 20260505013822 | 17 | 210 | 4.8 | 17.7 | 0.00 | 0.00 | 0.00 | 18 | 1012.9 |
| 20260505013327 | 17 | 234 | 3.2 | 17.7 | 0.00 | 0.00 | 0.00 | 18 | 1012.9 |
| 20260505012833 | 18 | 232 | 4.8 | 17.7 | 0.00 | 0.00 | 0.00 | 18 | 1012.8 |
| 20260505012338 | 18 | 252 | 4.8 | 17.7 | 0.00 | 0.00 | 0.00 | 18 | 1012.8 |
| 20260505011823 | 18 | 231 | 6.4 | 20.9 | 0.00 | 0.00 | 0.00 | 18 | 1012.7 |
| 20260505011333 | 18 | 210 | 8.0 | 20.9 | 0.00 | 0.00 | 0.00 | 18 | 1012.7 |
| 20260505010837 | 18 | 228 | 4.8 | 16.1 | 0.00 | 0.00 | 0.00 | 18 | 1012.7 |
| 20260505010325 | 18 | 266 | 4.8 | 24.1 | 0.00 | 0.00 | 0.00 | 18 | 1012.7 |
| 20260505005830 | 18 | 193 | 6.4 | 24.1 | 0.00 | 0.00 | 0.00 | 17 | 1012.8 |
| 20260505005339 | 18 | 205 | 6.4 | 22.5 | 0.00 | 0.00 | 0.00 | 17 | 1012.8 |
| 20260505004824 | 18 | 245 | 8.0 | 22.5 | 0.00 | 0.00 | 0.00 | 17 | 1012.8 |
| 20260505004329 | 18 | 188 | 9.7 | 22.5 | 0.00 | 0.00 | 0.00 | 17 | 1012.9 |
| 20260505003834 | 18 | 196 | 11.3 | 22.5 | 0.00 | 0.00 | 0.00 | 17 | 1013.0 |
| 20260505003342 | 18 | 263 | 8.0 | 22.5 | 0.00 | 0.00 | 0.00 | 17 | 1013.1 |
| 20260505002827 | 18 | 241 | 4.8 | 20.9 | 0.00 | 0.00 | 0.00 | 17 | 1012.9 |
| 20260505002337 | 18 | 239 | 6.4 | 22.5 | 0.00 | 0.00 | 0.00 | 17 | 1012.9 |
| 20260505001842 | 18 | 271 | 8.0 | 22.5 | 0.00 | 0.00 | 0.00 | 17 | 1012.8 |
| 20260505001327 | 18 | 227 | 8.0 | 24.1 | 0.00 | 0.00 | 0.00 | 17 | 1012.9 |
| 20260505000832 | 18 | 282 | 6.4 | 24.1 | 0.00 | 0.00 | 0.00 | 17 | 1013.0 |
| 20260505000337 | 19 | 219 | 8.0 | 22.5 | 0.00 | 0.00 | 0.00 | 17 | 1013.1 |
| 20260504235842 | 19 | 244 | 9.7 | 22.5 | 0.00 | 0.00 | 0.00 | 17 | 1013.2 |
| 20260504235327 | 19 | 217 | 9.7 | 20.9 | 0.00 | 0.00 | 0.00 | 18 | 1013.1 |
| 20260504234835 | 19 | 211 | 8.0 | 20.9 | 0.00 | 0.00 | 0.00 | 18 | 1013.2 |
| 20260504234340 | 19 | 259 | 1.6 | 25.7 | 0.00 | 0.00 | 0.00 | 18 | 1013.2 |
| 20260504233825 | 19 | 260 | 9.7 | 25.7 | 0.00 | 0.00 | 0.00 | 18 | 1013.3 |
| 20260504233338 | 19 | 254 | 4.8 | 16.1 | 0.00 | 0.00 | 0.00 | 18 | 1013.2 |
| 20260504232822 | 19 | 250 | 8.0 | 20.9 | 0.00 | 0.00 | 0.00 | 18 | 1013.2 |
| 20260504232328 | 19 | 236 | 6.4 | 29.0 | 0.00 | 0.00 | 0.00 | 19 | 1013.1 |
| 20260504231833 | 19 | 249 | 12.9 | 29.0 | 0.00 | 0.00 | 0.00 | 18 | 1013.2 |
| 20260504231339 | 19 | 212 | 8.0 | 17.7 | 0.00 | 0.00 | 0.00 | 18 | 1013.1 |
| 20260504230824 | 20 | 209 | 8.0 | 22.5 | 0.00 | 0.00 | 0.00 | 19 | 1013.0 |
| 20260504230331 | 20 | 219 | 6.4 | 22.5 | 0.00 | 0.00 | 0.00 | 19 | 1013.4 |
| 20260504225836 | 19 | 243 | 9.7 | 22.5 | 0.00 | 0.00 | 0.00 | 18 | 1013.4 |
| 20260504225341 | 19 | 257 | 6.4 | 17.7 | 0.00 | 0.00 | 0.00 | 19 | 1013.5 |
| 20260504224827 | 19 | 242 | 8.0 | 20.9 | 0.00 | 0.00 | 0.00 | 19 | 1013.5 |
| 20260504224336 | 19 | 242 | 8.0 | 20.9 | 0.00 | 0.00 | 0.00 | 19 | 1013.6 |
| 20260504223842 | 19 | 217 | 8.0 | 20.9 | 0.00 | 0.00 | 0.00 | 19 | 1013.5 |
| 20260504223328 | 18 | 258 | 4.8 | 20.9 | 0.00 | 0.00 | 0.00 | 19 | 1013.6 |
| 20260504222833 | 18 | 248 | 9.7 | 22.5 | 0.00 | 0.00 | 0.00 | 18 | 1013.6 |
| 20260504222342 | 18 | 249 | 4.8 | 25.7 | 0.00 | 0.00 | 0.00 | 18 | 1013.6 |
| 20260504221827 | 18 | 248 | 6.4 | 25.7 | 0.00 | 0.00 | 0.00 | 18 | 1013.9 |
| 20260504221333 | 18 | 193 | 4.8 | 22.5 | 0.00 | 0.00 | 0.00 | 18 | 1013.8 |
| 20260504220838 | 18 | 252 | 8.0 | 25.7 | 0.00 | 0.00 | 0.00 | 17 | 1014.0 |
| 20260504220323 | 19 | 236 | 11.3 | 25.7 | 0.00 | 0.00 | 0.00 | 17 | 1014.1 |
| 20260504215828 | 19 | 206 | 8.0 | 24.1 | 0.00 | 0.00 | 0.00 | 17 | 1014.2 |
| 20260504215337 | 19 | 282 | 6.4 | 17.7 | 0.00 | 0.00 | 0.00 | 16 | 1014.2 |